• In Lithuania
  • List of Countries
  • For 7 days
  • Water Temperature
  • Satellite Maps
  • Weather Map
  • Weather Widgets
  • user-avatar
    Login

    Hourly Weather Ventyan

    Today, 18 July, Wednesday

    Time Temperature Precipitation Wind Pressure Humidity
    00:00 +25°C° 0.4 mm 0 mps 737 mmHg 93%
    01:00 +25°C° 0 mm 0 mps 737 mmHg 93%
    02:00 +25°C° 1 mm 0 mps 737 mmHg 94%
    03:00 +24°C° 1 mm 0 mps 737 mmHg 95%
    04:00 +24°C° 1 mm 0 mps 736 mmHg 95%
    05:00 +24°C° 1 mm 0 mps 737 mmHg 94%
    06:00 +25°C° 1 mm 0 mps 737 mmHg 94%
    07:00 +27°C° 0 mm 1 mps 737 mmHg 93%
    08:00 +29°C° 1.6 mm 1 mps 737 mmHg 88%
    09:00 +30°C° 1.6 mm 1 mps 736 mmHg 84%
    10:00 +31°C° 1.6 mm 1 mps 736 mmHg 79%
    11:00 +32°C° 2.2 mm 1 mps 736 mmHg 79%
    12:00 +32°C° 2.2 mm 2 mps 736 mmHg 78%
    13:00 +34°C° 2.2 mm 2 mps 735 mmHg 77%
    14:00 +33°C° 0.9 mm 1 mps 735 mmHg 76%
    15:00 +33°C° 0.9 mm 1 mps 735 mmHg 75%
    16:00 +33°C° 0.9 mm 1 mps 734 mmHg 75%
    17:00 +31°C° 2 mm 1 mps 735 mmHg 80%
    18:00 +30°C° 2 mm 1 mps 735 mmHg 86%
    19:00 +29°C° 2 mm 1 mps 735 mmHg 91%
    20:00 +28°C° 1.2 mm 1 mps 735 mmHg 92%
    21:00 +28°C° 1.2 mm 1 mps 736 mmHg 93%
    22:00 +28°C° 1.2 mm 1 mps 737 mmHg 94%
    23:00 +28°C° 0.7 mm 1 mps 736 mmHg 94%

    Tomorrow, 19 July, Thursday

    Time Temperature Precipitation Wind Pressure Humidity
    00:00 +28°C° 0.7 mm 1 mps 736 mmHg 94%
    01:00 +27°C° 0.7 mm 1 mps 736 mmHg 94%
    02:00 +27°C° 0.7 mm 1 mps 736 mmHg 94%
    03:00 +27°C° 0.7 mm 1 mps 736 mmHg 95%
    04:00 +27°C° 0.7 mm 1 mps 736 mmHg 95%
    05:00 +27°C° 0.9 mm 1 mps 735 mmHg 95%
    06:00 +27°C° 0.9 mm 1 mps 735 mmHg 95%
    07:00 +27°C° 0.9 mm 1 mps 735 mmHg 94%
    08:00 +27°C° 2.5 mm 1 mps 736 mmHg 94%
    09:00 +27°C° 2.5 mm 1 mps 736 mmHg 94%
    10:00 +27°C° 2.5 mm 1 mps 737 mmHg 94%
    11:00 +28°C° 1.5 mm 1 mps 737 mmHg 93%
    12:00 +28°C° 1.5 mm 2 mps 737 mmHg 92%
    13:00 +28°C° 1.5 mm 2 mps 737 mmHg 90%
    14:00 +29°C° 0.8 mm 2 mps 736 mmHg 89%
    15:00 +29°C° 0.8 mm 2 mps 736 mmHg 88%
    16:00 +29°C° 0.8 mm 2 mps 736 mmHg 86%
    17:00 +29°C° 1 mm 2 mps 736 mmHg 88%
    18:00 +28°C° 1 mm 1 mps 736 mmHg 90%
    19:00 +27°C° 1 mm 1 mps 737 mmHg 92%
    20:00 +27°C° 0.6 mm 1 mps 738 mmHg 92%
    21:00 +27°C° 0.6 mm 1 mps 738 mmHg 92%
    22:00 +27°C° 0.6 mm 1 mps 739 mmHg 93%
    23:00 +26°C° 0.3 mm 1 mps 739 mmHg 93%

    Day after tomorrow, 20 July, Friday

    Time Temperature Precipitation Wind Pressure Humidity
    00:00 +26°C° 0.3 mm 2 mps 739 mmHg 94%
    01:00 +26°C° 0.3 mm 2 mps 739 mmHg 95%
    02:00 +26°C° 0.3 mm 2 mps 739 mmHg 95%
    03:00 +26°C° 0.3 mm 2 mps 739 mmHg 96%
    04:00 +25°C° 0.3 mm 2 mps 738 mmHg 96%
    05:00 +26°C° 0.3 mm 2 mps 739 mmHg 96%
    06:00 +26°C° 0.3 mm 2 mps 739 mmHg 95%
    07:00 +26°C° 0.3 mm 2 mps 739 mmHg 95%
    08:00 +27°C° 0.2 mm 2 mps 740 mmHg 92%
    09:00 +27°C° 0.2 mm 2 mps 740 mmHg 90%
    10:00 +28°C° 0.2 mm 3 mps 740 mmHg 87%
    11:00 +29°C° 0.6 mm 2 mps 740 mmHg 85%
    12:00 +29°C° 0.6 mm 2 mps 740 mmHg 84%
    13:00 +30°C° 0.6 mm 2 mps 739 mmHg 83%
    14:00 +30°C° 1.5 mm 2 mps 739 mmHg 83%
    15:00 +30°C° 1.5 mm 2 mps 739 mmHg 83%
    16:00 +30°C° 1.5 mm 1 mps 738 mmHg 83%
    17:00 +29°C° 1.5 mm 1 mps 739 mmHg 86%
    18:00 +29°C° 1.5 mm 1 mps 739 mmHg 89%
    19:00 +28°C° 1.5 mm 1 mps 740 mmHg 91%
    20:00 +27°C° 1.1 mm 1 mps 740 mmHg 92%
    21:00 +27°C° 1.1 mm 1 mps 741 mmHg 92%
    22:00 +27°C° 1.1 mm 1 mps 742 mmHg 92%
    23:00 +27°C° 0.5 mm 1 mps 741 mmHg 93%

    21 July, Saturday

    Time Temperature Precipitation Wind Pressure Humidity
    00:00 +26°C° 0.5 mm 1 mps 741 mmHg 94%
    01:00 +26°C° 0.5 mm 1 mps 741 mmHg 94%
    02:00 +26°C° 0.1 mm 1 mps 741 mmHg 95%
    03:00 +26°C° 0.1 mm 1 mps 740 mmHg 95%
    04:00 +26°C° 0.1 mm 1 mps 740 mmHg 95%
    05:00 +26°C° 0 mm 1 mps 740 mmHg 94%
    06:00 +26°C° 0 mm 1 mps 741 mmHg 93%
    07:00 +25°C° 0 mm 0 mps 741 mmHg 92%
    08:00 +28°C° 0.1 mm 1 mps 741 mmHg 85%
    09:00 +30°C° 0.1 mm 1 mps 741 mmHg 79%
    10:00 +31°C° 0.1 mm 1 mps 742 mmHg 72%
    11:00 +32°C° 0.6 mm 1 mps 741 mmHg 72%
    12:00 +32°C° 0.6 mm 1 mps 740 mmHg 72%
    13:00 +32°C° 0.6 mm 2 mps 740 mmHg 72%
    14:00 +34°C° 0.8 mm 2 mps 739 mmHg 72%
    15:00 +34°C° 0.8 mm 2 mps 739 mmHg 72%
    16:00 +34°C° 0.8 mm 2 mps 738 mmHg 73%
    17:00 +31°C° 2.5 mm 2 mps 738 mmHg 78%
    18:00 +30°C° 2.5 mm 1 mps 739 mmHg 84%
    19:00 +28°C° 2.5 mm 1 mps 739 mmHg 89%
    20:00 +28°C° 0.8 mm 1 mps 740 mmHg 90%
    21:00 +28°C° 0.8 mm 1 mps 741 mmHg 90%
    22:00 +28°C° 0.8 mm 1 mps 742 mmHg 91%
    23:00 +27°C° 0.1 mm 1 mps 741 mmHg 91%

    22 July, Sunday

    Time Temperature Precipitation Wind Pressure Humidity
    00:00 +27°C° 0.1 mm 1 mps 741 mmHg 92%
    01:00 +27°C° 0.1 mm 1 mps 741 mmHg 93%
    02:00 +27°C° 0 mm 1 mps 740 mmHg 93%
    03:00 +26°C° 0 mm 1 mps 740 mmHg 94%
    04:00 +26°C° 0 mm 1 mps 740 mmHg 94%
    05:00 +27°C° 0 mm 1 mps 740 mmHg 93%
    06:00 +27°C° 0 mm 1 mps 740 mmHg 92%
    07:00 +27°C° 0 mm 1 mps 740 mmHg 91%
    08:00 +28°C° 0 mm 2 mps 741 mmHg 84%
    09:00 +30°C° 0 mm 2 mps 741 mmHg 77%
    10:00 +32°C° 0 mm 2 mps 741 mmHg 69%
    11:00 +34°C° 0 mm 3 mps 741 mmHg 66%
    12:00 +35°C° 0 mm 3 mps 740 mmHg 62%
    13:00 +36°C° 0 mm 3 mps 740 mmHg 58%
    14:00 +36°C° 0.1 mm 3 mps 739 mmHg 59%
    15:00 +36°C° 0.1 mm 3 mps 739 mmHg 59%
    16:00 +36°C° 0.1 mm 3 mps 738 mmHg 60%
    17:00 +34°C° 0 mm 3 mps 738 mmHg 66%
    18:00 +32°C° 0 mm 2 mps 738 mmHg 71%
    19:00 +31°C° 0 mm 2 mps 739 mmHg 77%
    20:00 +30°C° 0 mm 2 mps 739 mmHg 78%
    21:00 +30°C° 0 mm 2 mps 740 mmHg 79%
    22:00 +29°C° 0 mm 2 mps 740 mmHg 80%
    23:00 +29°C° 0 mm 2 mps 740 mmHg 80%

    23 July, Monday

    Time Temperature Precipitation Wind Pressure Humidity
    00:00 +28°C° 0 mm 2 mps 740 mmHg 81%
    01:00 +28°C° 0 mm 2 mps 739 mmHg 82%
    02:00 +28°C° 0 mm 2 mps 739 mmHg 82%
    03:00 +28°C° 0 mm 2 mps 739 mmHg 82%
    04:00 +27°C° 0 mm 2 mps 738 mmHg 82%
    05:00 +28°C° 0 mm 2 mps 739 mmHg 82%
    06:00 +28°C° 0 mm 2 mps 739 mmHg 82%
    07:00 +28°C° 0 mm 2 mps 739 mmHg 82%
    08:00 +30°C° 0 mm 3 mps 740 mmHg 75%
    09:00 +31°C° 0 mm 3 mps 740 mmHg 68%
    10:00 +34°C° 0 mm 4 mps 740 mmHg 62%
    11:00 +35°C° 0 mm 4 mps 739 mmHg 58%
    12:00 +36°C° 0 mm 4 mps 739 mmHg 54%
    13:00 +38°C° 0 mm 4 mps 738 mmHg 50%
    14:00 +38°C° 0 mm 4 mps 738 mmHg 50%
    15:00 +38°C° 0 mm 4 mps 737 mmHg 50%
    16:00 +38°C° 0 mm 4 mps 737 mmHg 51%
    17:00 +36°C° 0 mm 4 mps 737 mmHg 57%
    18:00 +34°C° 0 mm 3 mps 737 mmHg 64%
    19:00 +31°C° 0 mm 3 mps 738 mmHg 70%
    20:00 +31°C° 0 mm 3 mps 738 mmHg 72%
    21:00 +30°C° 0 mm 3 mps 739 mmHg 74%
    22:00 +30°C° 0 mm 3 mps 739 mmHg 75%
    23:00 +29°C° 0 mm 2 mps 739 mmHg 77%
    Show more